GFSFLT2_prec_pwat_240.txt.gz
Precipitable_Water
0.60 0.55 0.54 0.53 0.54 0.52 0.51 0.51 0.54 0.54 0.54 0.50 0.47 0.48 0.52 0.56 0.60 0.59 0.57 0.53 0.55 0.51 0.49 0.49 0.50 0.51 0.50
0.62 0.57 0.53 0.53 0.54 0.51 0.50 0.52 0.55 0.55 0.51 0.46 0.46 0.49 0.53 0.58 0.58 0.55 0.53 0.53 0.48 0.48 0.48 0.47 0.46 0.47 0.47
0.62 0.61 0.57 0.56 0.54 0.52 0.51 0.49 0.49 0.50 0.48 0.45 0.46 0.52 0.57 0.56 0.53 0.52 0.51 0.48 0.48 0.46 0.46 0.46 0.46 0.46 0.44
0.63 0.61 0.59 0.59 0.55 0.49 0.46 0.48 0.47 0.48 0.46 0.45 0.52 0.56 0.57 0.53 0.53 0.51 0.49 0.48 0.46 0.48 0.49 0.47 0.45 0.41 0.38
0.66 0.60 0.57 0.53 0.50 0.51 0.49 0.49 0.50 0.48 0.43 0.50 0.55 0.57 0.55 0.56 0.53 0.49 0.47 0.47 0.50 0.50 0.48 0.44 0.40 0.37 0.34
0.68 0.62 0.59 0.58 0.57 0.53 0.52 0.48 0.43 0.48 0.46 0.53 0.60 0.59 0.58 0.53 0.50 0.49 0.47 0.49 0.48 0.46 0.41 0.39 0.36 0.32 0.30
0.73 0.68 0.63 0.62 0.59 0.55 0.52 0.49 0.42 0.49 0.57 0.56 0.60 0.56 0.54 0.52 0.51 0.48 0.47 0.49 0.47 0.41 0.38 0.34 0.31 0.31 0.28
0.77 0.75 0.70 0.64 0.60 0.57 0.53 0.47 0.51 0.59 0.61 0.54 0.59 0.53 0.55 0.52 0.48 0.47 0.47 0.43 0.40 0.36 0.33 0.31 0.29 0.28 0.26
0.74 0.69 0.63 0.61 0.60 0.55 0.48 0.52 0.53 0.56 0.58 0.57 0.56 0.51 0.47 0.44 0.46 0.46 0.43 0.40 0.35 0.33 0.29 0.28 0.26 0.24 0.24
0.67 0.65 0.63 0.59 0.53 0.55 0.58 0.53 0.52 0.56 0.61 0.53 0.49 0.44 0.42 0.44 0.43 0.42 0.39 0.36 0.32 0.29 0.28 0.24 0.24 0.24 0.23
0.64 0.61 0.59 0.57 0.58 0.60 0.59 0.58 0.60 0.54 0.54 0.51 0.47 0.46 0.43 0.40 0.40 0.38 0.35 0.31 0.29 0.27 0.23 0.23 0.24 0.23 0.22
0.61 0.59 0.59 0.61 0.61 0.63 0.67 0.65 0.59 0.55 0.54 0.53 0.48 0.45 0.41 0.35 0.30 0.32 0.32 0.30 0.27 0.24 0.24 0.24 0.22 0.22 0.21
0.62 0.63 0.65 0.68 0.68 0.66 0.62 0.59 0.57 0.56 0.54 0.50 0.45 0.42 0.38 0.32 0.29 0.28 0.27 0.24 0.26 0.24 0.24 0.21 0.21 0.21 0.19
0.66 0.69 0.70 0.66 0.63 0.63 0.58 0.56 0.54 0.50 0.50 0.46 0.41 0.38 0.33 0.32 0.29 0.25 0.26 0.24 0.24 0.23 0.23 0.22 0.21 0.22 0.21
0.67 0.65 0.64 0.63 0.61 0.59 0.57 0.54 0.48 0.44 0.40 0.40 0.39 0.36 0.32 0.29 0.25 0.25 0.25 0.24 0.24 0.23 0.23 0.22 0.22 0.22 0.22
0.65 0.63 0.61 0.58 0.57 0.56 0.53 0.47 0.42 0.39 0.36 0.35 0.33 0.30 0.28 0.26 0.27 0.24 0.24 0.23 0.23 0.23 0.23 0.22 0.21 0.22 0.22
0.60 0.58 0.56 0.55 0.54 0.50 0.45 0.41 0.38 0.35 0.32 0.31 0.29 0.26 0.23 0.21 0.24 0.27 0.23 0.23 0.23 0.22 0.23 0.22 0.21 0.21 0.21

GFSFLT2_prec_pwat_243.txt.gz
Precipitable_Water
0.75 0.71 0.68 0.59 0.58 0.57 0.53 0.51 0.49 0.49 0.50 0.52 0.51 0.48 0.45 0.48 0.54 0.60 0.61 0.56 0.52 0.50 0.49 0.51 0.55 0.55 0.52
0.77 0.71 0.69 0.66 0.61 0.58 0.55 0.54 0.52 0.52 0.54 0.55 0.53 0.49 0.44 0.45 0.54 0.58 0.56 0.51 0.49 0.46 0.48 0.52 0.52 0.51 0.51
0.78 0.77 0.73 0.72 0.62 0.56 0.53 0.54 0.53 0.54 0.57 0.55 0.54 0.50 0.44 0.50 0.56 0.57 0.51 0.48 0.48 0.49 0.52 0.51 0.52 0.51 0.49
0.82 0.83 0.81 0.76 0.69 0.57 0.51 0.52 0.53 0.54 0.57 0.55 0.55 0.50 0.47 0.53 0.55 0.53 0.49 0.49 0.50 0.53 0.52 0.53 0.50 0.49 0.47
0.78 0.76 0.76 0.74 0.67 0.62 0.56 0.53 0.52 0.51 0.50 0.53 0.51 0.46 0.49 0.53 0.55 0.52 0.53 0.52 0.52 0.53 0.52 0.52 0.50 0.47 0.43
0.78 0.81 0.80 0.78 0.72 0.65 0.61 0.54 0.48 0.55 0.51 0.49 0.49 0.44 0.52 0.56 0.55 0.55 0.54 0.52 0.52 0.54 0.52 0.51 0.47 0.43 0.41
0.81 0.79 0.83 0.81 0.79 0.68 0.67 0.60 0.56 0.56 0.54 0.48 0.46 0.49 0.56 0.55 0.56 0.55 0.55 0.52 0.53 0.54 0.51 0.45 0.43 0.41 0.37
0.88 0.89 0.87 0.86 0.82 0.77 0.71 0.63 0.60 0.58 0.55 0.44 0.52 0.53 0.54 0.56 0.59 0.57 0.54 0.53 0.52 0.49 0.45 0.43 0.40 0.38 0.35
0.90 0.88 0.86 0.84 0.82 0.75 0.67 0.60 0.53 0.53 0.54 0.50 0.54 0.52 0.53 0.58 0.58 0.53 0.54 0.50 0.48 0.45 0.41 0.39 0.37 0.34 0.30
0.84 0.88 0.88 0.82 0.77 0.71 0.65 0.57 0.55 0.50 0.53 0.51 0.52 0.52 0.51 0.56 0.50 0.50 0.53 0.52 0.47 0.43 0.38 0.34 0.32 0.31 0.28
0.77 0.76 0.75 0.74 0.71 0.68 0.65 0.59 0.53 0.53 0.56 0.57 0.53 0.55 0.51 0.49 0.52 0.52 0.49 0.45 0.40 0.36 0.33 0.32 0.30 0.28 0.26
0.72 0.70 0.68 0.67 0.66 0.65 0.64 0.61 0.60 0.56 0.60 0.59 0.56 0.52 0.50 0.50 0.47 0.47 0.42 0.39 0.36 0.32 0.31 0.29 0.27 0.27 0.27
0.65 0.65 0.65 0.64 0.63 0.62 0.63 0.62 0.64 0.64 0.64 0.59 0.57 0.56 0.52 0.46 0.41 0.37 0.34 0.33 0.33 0.31 0.28 0.26 0.26 0.26 0.22
0.67 0.67 0.66 0.64 0.64 0.64 0.63 0.63 0.60 0.59 0.62 0.61 0.57 0.53 0.45 0.40 0.37 0.33 0.32 0.28 0.29 0.29 0.28 0.27 0.25 0.25 0.23
0.66 0.65 0.66 0.65 0.64 0.65 0.63 0.61 0.57 0.55 0.55 0.54 0.51 0.46 0.42 0.38 0.32 0.31 0.29 0.29 0.29 0.27 0.26 0.25 0.24 0.23 0.24
0.66 0.65 0.63 0.61 0.60 0.60 0.59 0.56 0.54 0.53 0.49 0.45 0.42 0.38 0.35 0.34 0.33 0.28 0.28 0.27 0.27 0.27 0.26 0.24 0.23 0.23 0.25
0.64 0.62 0.61 0.59 0.57 0.55 0.54 0.53 0.50 0.47 0.43 0.41 0.37 0.32 0.28 0.25 0.29 0.32 0.26 0.26 0.26 0.25 0.24 0.23 0.22 0.23 0.25

GFSFLT2_prec_pwat_246.txt.gz
Precipitable_Water
0.76 0.80 0.75 0.71 0.69 0.66 0.64 0.57 0.53 0.52 0.49 0.48 0.50 0.51 0.50 0.48 0.45 0.45 0.49 0.58 0.59 0.56 0.51 0.50 0.50 0.50 0.52
0.70 0.76 0.76 0.76 0.73 0.68 0.64 0.62 0.61 0.58 0.57 0.54 0.53 0.53 0.52 0.51 0.47 0.44 0.50 0.57 0.55 0.50 0.49 0.49 0.49 0.52 0.55
0.69 0.74 0.77 0.78 0.77 0.77 0.76 0.70 0.65 0.62 0.60 0.59 0.58 0.59 0.60 0.56 0.51 0.47 0.52 0.55 0.52 0.49 0.49 0.50 0.52 0.55 0.54
0.72 0.72 0.74 0.77 0.77 0.73 0.68 0.67 0.60 0.61 0.58 0.60 0.62 0.60 0.58 0.56 0.54 0.51 0.54 0.55 0.50 0.49 0.51 0.52 0.56 0.55 0.53
0.74 0.71 0.72 0.73 0.74 0.77 0.74 0.71 0.63 0.60 0.60 0.62 0.62 0.59 0.58 0.56 0.49 0.48 0.52 0.50 0.48 0.49 0.52 0.58 0.58 0.54 0.53
0.79 0.71 0.73 0.77 0.76 0.77 0.78 0.71 0.62 0.67 0.61 0.59 0.64 0.59 0.57 0.54 0.47 0.49 0.53 0.49 0.50 0.54 0.60 0.57 0.54 0.53 0.51
0.83 0.80 0.79 0.80 0.78 0.77 0.77 0.75 0.72 0.72 0.68 0.61 0.61 0.56 0.57 0.54 0.50 0.56 0.51 0.53 0.55 0.58 0.59 0.55 0.53 0.50 0.49
0.94 0.91 0.90 0.89 0.82 0.84 0.84 0.78 0.73 0.72 0.71 0.59 0.60 0.57 0.58 0.53 0.56 0.55 0.56 0.58 0.59 0.57 0.57 0.53 0.50 0.49 0.46
0.96 0.93 0.91 0.92 0.90 0.87 0.79 0.75 0.67 0.70 0.72 0.61 0.60 0.56 0.55 0.55 0.55 0.57 0.59 0.57 0.58 0.55 0.53 0.52 0.49 0.46 0.42
0.91 0.89 0.91 0.91 0.91 0.88 0.82 0.74 0.68 0.64 0.70 0.61 0.58 0.55 0.50 0.55 0.54 0.56 0.58 0.59 0.56 0.56 0.54 0.50 0.45 0.40 0.36
0.86 0.85 0.86 0.85 0.85 0.85 0.84 0.79 0.70 0.65 0.66 0.61 0.57 0.55 0.52 0.50 0.52 0.54 0.56 0.55 0.58 0.53 0.47 0.42 0.39 0.36 0.33
0.78 0.77 0.77 0.79 0.79 0.80 0.77 0.74 0.70 0.64 0.64 0.60 0.56 0.54 0.51 0.53 0.52 0.57 0.57 0.56 0.50 0.44 0.41 0.37 0.35 0.34 0.32
0.73 0.73 0.76 0.77 0.76 0.74 0.74 0.69 0.65 0.62 0.62 0.60 0.58 0.60 0.58 0.56 0.55 0.54 0.50 0.45 0.43 0.38 0.36 0.33 0.30 0.29 0.27
0.72 0.73 0.73 0.70 0.67 0.66 0.61 0.58 0.56 0.58 0.64 0.66 0.64 0.62 0.59 0.57 0.54 0.47 0.43 0.38 0.37 0.34 0.33 0.31 0.30 0.29 0.27
0.69 0.68 0.66 0.65 0.62 0.62 0.60 0.61 0.61 0.60 0.59 0.61 0.62 0.62 0.58 0.52 0.44 0.40 0.36 0.34 0.33 0.31 0.30 0.28 0.28 0.27 0.26
0.68 0.66 0.64 0.63 0.62 0.63 0.64 0.61 0.58 0.57 0.56 0.57 0.56 0.51 0.48 0.43 0.41 0.34 0.32 0.30 0.29 0.28 0.28 0.26 0.25 0.25 0.25
0.66 0.65 0.63 0.62 0.61 0.60 0.58 0.57 0.55 0.55 0.54 0.53 0.49 0.43 0.36 0.31 0.33 0.36 0.29 0.29 0.27 0.26 0.26 0.25 0.24 0.24 0.25

GFSFLT2_prec_pwat_252.txt.gz
Precipitable_Water
0.77 0.79 0.81 0.79 0.80 0.86 0.84 0.83 0.82 0.81 0.81 0.81 0.76 0.74 0.73 0.69 0.63 0.58 0.55 0.53 0.53 0.54 0.52 0.56 0.59 0.58 0.55
0.77 0.79 0.80 0.82 0.82 0.79 0.80 0.81 0.79 0.79 0.80 0.80 0.80 0.76 0.73 0.68 0.61 0.57 0.56 0.53 0.53 0.56 0.54 0.52 0.56 0.57 0.55
0.75 0.83 0.80 0.78 0.77 0.80 0.76 0.81 0.76 0.77 0.78 0.78 0.81 0.78 0.75 0.71 0.64 0.60 0.58 0.57 0.58 0.58 0.58 0.55 0.57 0.57 0.54
0.76 0.76 0.78 0.77 0.75 0.76 0.69 0.75 0.75 0.75 0.77 0.76 0.78 0.75 0.74 0.71 0.66 0.63 0.60 0.59 0.59 0.59 0.60 0.56 0.55 0.54 0.52
0.72 0.69 0.69 0.68 0.68 0.75 0.72 0.73 0.76 0.75 0.75 0.74 0.77 0.73 0.76 0.75 0.71 0.65 0.64 0.65 0.64 0.64 0.61 0.54 0.53 0.54 0.55
0.75 0.69 0.74 0.72 0.76 0.75 0.73 0.66 0.60 0.76 0.76 0.73 0.75 0.73 0.73 0.75 0.75 0.69 0.68 0.66 0.65 0.65 0.61 0.55 0.56 0.57 0.57
0.79 0.78 0.74 0.77 0.78 0.75 0.72 0.72 0.67 0.75 0.77 0.73 0.79 0.77 0.79 0.82 0.81 0.75 0.70 0.69 0.69 0.67 0.64 0.60 0.59 0.55 0.55
0.88 0.88 0.89 0.86 0.86 0.84 0.78 0.79 0.81 0.80 0.82 0.70 0.81 0.77 0.80 0.83 0.83 0.75 0.74 0.74 0.72 0.69 0.65 0.60 0.57 0.53 0.58
0.95 0.95 0.95 0.94 0.90 0.85 0.76 0.74 0.73 0.74 0.83 0.77 0.77 0.78 0.80 0.81 0.82 0.81 0.79 0.74 0.70 0.68 0.65 0.60 0.54 0.57 0.60
0.87 0.89 0.92 0.92 0.92 0.88 0.83 0.75 0.75 0.71 0.81 0.77 0.76 0.74 0.68 0.78 0.78 0.75 0.76 0.72 0.70 0.68 0.62 0.56 0.58 0.58 0.60
0.81 0.79 0.81 0.83 0.84 0.85 0.85 0.83 0.76 0.74 0.81 0.80 0.75 0.74 0.71 0.68 0.73 0.76 0.75 0.71 0.67 0.64 0.61 0.61 0.63 0.65 0.61
0.74 0.71 0.72 0.75 0.78 0.80 0.83 0.83 0.84 0.80 0.82 0.81 0.74 0.73 0.70 0.66 0.64 0.68 0.67 0.67 0.66 0.61 0.61 0.64 0.65 0.63 0.60
0.68 0.69 0.72 0.74 0.76 0.76 0.77 0.78 0.78 0.79 0.80 0.78 0.74 0.73 0.71 0.65 0.62 0.62 0.60 0.60 0.59 0.57 0.60 0.60 0.57 0.54 0.48
0.70 0.71 0.72 0.70 0.69 0.72 0.70 0.71 0.69 0.69 0.74 0.75 0.73 0.71 0.66 0.65 0.60 0.55 0.56 0.56 0.60 0.59 0.56 0.52 0.50 0.47 0.43
0.71 0.70 0.69 0.68 0.66 0.69 0.68 0.67 0.64 0.63 0.63 0.66 0.68 0.68 0.64 0.59 0.56 0.58 0.57 0.55 0.55 0.51 0.48 0.44 0.42 0.39 0.36
0.70 0.68 0.67 0.66 0.64 0.65 0.66 0.64 0.62 0.61 0.60 0.61 0.61 0.59 0.58 0.59 0.60 0.54 0.53 0.51 0.48 0.45 0.42 0.37 0.33 0.32 0.31
0.68 0.68 0.68 0.66 0.63 0.63 0.62 0.61 0.59 0.58 0.57 0.58 0.57 0.54 0.49 0.47 0.51 0.55 0.46 0.43 0.40 0.37 0.35 0.32 0.30 0.28 0.29